GAPWX Weather Reports


time (UTC)temp
F
wind
direction
speed
knots
gust
knots
rain 1hr
in
rain 24hr
in
rain mn
in
humidity
%
barometer
mb
20260831162312 63 210 1.7 2.6 0.00 0.00 0.00 44 1016.8
20260831161810 62 225 0.9 1.7 0.00 0.00 0.00 45 1016.8
20260831160807 58 225 0.0 1.7 0.00 0.00 0.00 49 1016.9
20260831160307 57 260 1.7 1.7 0.00 0.00 0.00 51 1016.9
20260831155306 53 225 0.0 0.0 0.00 0.00 0.00 55 1017.0
20260831154802 52 225 0.0 0.0 0.00 0.00 0.00 56 1017.0
20260831153258 49 225 0.0 0.0 0.00 0.00 0.00 56 1017.1
20260831145247 46 270 0.0 0.0 0.00 0.00 0.00 54 1017.2
20260831143743 45 225 0.0 0.0 0.00 0.00 0.00 54 1017.1
20260831134729 45 270 0.0 0.9 0.00 0.00 0.00 53 1016.9
20260831131721 45 225 0.0 0.9 0.00 0.00 0.00 53 1016.9
20260831131220 45 0 0.9 0.9 0.00 0.00 0.00 53 1016.9
20260831130718 46 270 0.0 0.0 0.00 0.00 0.00 53 1016.9
20260831125716 46 270 0.0 0.0 0.00 0.00 0.00 53 1016.8
20260831125215 46 316 0.0 0.0 0.00 0.00 0.00 53 1016.9
20260831124213 46 270 0.0 0.0 0.00 0.00 0.00 52 1016.8
20260831122707 46 225 0.0 0.0 0.00 0.00 0.00 52 1016.9
20260831122207 46 270 0.0 0.0 0.00 0.00 0.00 52 1016.8
20260831121204 46 197 0.0 0.0 0.00 0.00 0.00 52 1016.9
20260831120702 46 225 0.0 0.0 0.00 0.00 0.00 51 1016.9
20260831120202 46 270 0.0 0.0 0.00 0.00 0.00 51 1016.8
20260831115659 47 270 0.0 0.0 0.00 0.00 0.00 51 1016.8
20260831115159 47 270 0.0 0.0 0.00 0.00 0.00 50 1016.8
20260831114657 47 270 0.0 0.0 0.00 0.00 0.00 50 1016.9
20260831114156 47 225 0.0 0.0 0.00 0.00 0.00 49 1016.9
20260831113153 47 135 0.0 0.0 0.00 0.00 0.00 49 1016.9
20260831112651 47 225 0.0 0.0 0.00 0.00 0.00 49 1017.0
20260831111648 47 45 0.0 0.0 0.00 0.00 0.00 49 1016.9
20260831110646 47 270 0.0 0.0 0.00 0.00 0.00 49 1016.8
20260831105953 47 225 0.0 0.0 0.00 0.00 0.00 49 1016.9
20260831105644 47 225 0.0 0.0 0.00 0.00 0.00 49 1016.9
20260831105143 48 45 0.0 0.0 0.00 0.00 0.00 49 1017.0
20260831104640 48 45 0.0 0.0 0.00 0.00 0.00 49 1017.0
20260831104140 48 45 0.0 0.0 0.00 0.00 0.00 49 1017.1
20260831103638 48 45 0.0 0.0 0.00 0.00 0.00 49 1017.0
20260831102635 48 270 0.0 0.0 0.00 0.00 0.00 49 1017.1
20260831102135 48 270 0.0 0.0 0.00 0.00 0.00 49 1017.0
20260831101132 48 225 0.0 0.0 0.00 0.00 0.00 49 1017.1
20260831100630 48 225 0.0 0.0 0.00 0.00 0.00 49 1017.1
20260831100129 48 217 0.0 0.0 0.00 0.00 0.00 49 1017.0
20260831095627 48 0 0.0 0.0 0.00 0.00 0.00 49 1017.0
20260831094624 49 270 0.0 0.0 0.00 0.00 0.00 48 1017.0
20260831094123 49 225 0.0 0.0 0.00 0.00 0.00 48 1017.0
20260831093621 49 225 0.0 0.0 0.00 0.00 0.00 49 1017.0
20260831093121 49 225 0.0 0.0 0.00 0.00 0.00 48 1017.1
20260831092619 49 225 0.0 0.0 0.00 0.00 0.00 49 1017.0
20260831092118 49 180 0.0 0.0 0.00 0.00 0.00 48 1017.1
20260831090613 49 135 0.0 0.0 0.00 0.00 0.00 48 1017.1
20260831090113 49 135 0.0 0.0 0.00 0.00 0.00 47 1017.1
20260831084607 50 315 0.0 0.0 0.00 0.00 0.00 47 1017.3
20260831084107 50 225 0.0 0.0 0.00 0.00 0.00 47 1017.3
20260831083605 50 225 0.0 0.0 0.00 0.00 0.00 47 1017.3
20260831082602 50 180 0.0 0.0 0.00 0.00 0.00 47 1017.4
20260831081059 51 225 0.0 0.0 0.00 0.00 0.00 47 1017.5
20260831080056 51 225 0.0 0.0 0.00 0.00 0.00 47 1017.4
20260831075054 51 277 0.0 0.9 0.00 0.00 0.00 47 1017.5
20260831074551 51 270 0.0 0.0 0.00 0.00 0.00 47 1017.5
20260831072546 52 225 0.0 0.0 0.00 0.00 0.00 47 1017.4
20260831072045 52 225 0.0 0.0 0.00 0.00 0.00 47 1017.5
20260831070541 52 225 0.0 0.0 0.00 0.00 0.00 46 1017.4
20260831070040 52 225 0.0 0.9 0.00 0.00 0.00 47 1017.5
20260831065538 53 238 0.0 0.0 0.00 0.00 0.00 46 1017.4
20260831065037 53 225 0.0 0.0 0.00 0.00 0.00 45 1017.4
20260831064535 53 225 0.0 0.0 0.00 0.00 0.00 45 1017.4
20260831064035 53 225 0.0 0.0 0.00 0.00 0.00 45 1017.5
20260831063532 53 225 0.0 0.0 0.00 0.00 0.00 45 1017.4
20260831063032 53 225 0.0 0.0 0.00 0.00 0.00 44 1017.5
20260831062530 53 202 0.0 0.9 0.00 0.00 0.00 44 1017.5
20260831062029 53 180 0.0 0.0 0.00 0.00 0.00 44 1017.5
20260831061527 53 225 0.0 0.0 0.00 0.00 0.00 44 1017.4
20260831061026 54 270 0.0 0.0 0.00 0.00 0.00 44 1017.6
20260831060524 54 90 0.0 0.0 0.00 0.00 0.00 44 1017.5
20260831060024 54 135 0.0 0.0 0.00 0.00 0.00 43 1017.5
20260831054018 55 225 0.0 0.0 0.00 0.00 0.00 42 1017.6
20260831052515 55 225 0.0 0.0 0.00 0.00 0.00 42 1017.6
20260831051511 55 225 0.0 0.0 0.00 0.00 0.00 41 1017.7
20260831045005 56 90 0.0 0.0 0.00 0.00 0.00 40 1017.6
20260831044503 57 225 0.0 0.0 0.00 0.00 0.00 40 1017.6
20260831040954 58 270 0.0 0.0 0.00 0.00 0.00 38 1017.6
20260831040452 58 270 0.0 0.0 0.00 0.00 0.00 37 1017.7
20260831034447 60 270 0.0 0.0 0.00 0.00 0.00 36 1017.5
20260831032442 61 225 0.0 0.0 0.00 0.00 0.00 35 1017.4
20260831031942 62 225 0.0 0.0 0.00 0.00 0.00 35 1017.3
20260831030435 63 225 0.0 0.0 0.00 0.00 0.00 34 1017.2
20260831025434 64 225 0.0 0.0 0.00 0.00 0.00 34 1017.2
20260831023428 65 225 0.0 0.0 0.00 0.00 0.00 33 1017.0
20260831022928 66 225 0.0 0.0 0.00 0.00 0.00 33 1017.0
20260831022425 66 225 0.0 0.0 0.00 0.00 0.00 33 1017.0
20260831021925 66 225 0.0 0.0 0.00 0.00 0.00 32 1017.0
20260831021423 67 225 0.0 0.0 0.00 0.00 0.00 32 1017.0
20260831015920 68 210 0.9 1.7 0.00 0.00 0.00 31 1016.9
20260830223237 78 201 0.9 3.5 0.00 0.00 0.00 25 1017.2
20260830200657 78 220 0.9 7.0 0.00 0.00 0.00 23 1017.8
20260830173437 71 72 0.9 3.5 0.00 0.00 0.00 29 1018.3